NOAA 16 DEB, 41200

Orbit data source: Space-Track

NOAA 16 DEB, 41200 is space debris in SSO originally from a launch on Thu, 21 Sep 2000 UTC launched from the Air Force Western Test Range (AFWTR). Debris objects in space refer to the collection of defunct objects orbiting the Earth. Examples of debris include non-operational satellites, rocket bodies, and fragments generated from explosions, collisions, or faulty payload assembly.

Loading next visibility...
NOAA 16 DEB details
Identifier
41200, 2000-055DD
Orbit
SSO
Last TLE update12 hours ago
Origin
Flag of USNOAA (US)
ManufacturerUnknown
MissionSpacecraft
Bus & MotorUnknown
MassUnknown
Launch date (UTC)
2000-09-21 (24 years ago)
Launch vehicleUnknown
Launch site
Air Force Western Test Range (AFWTR)
Object type
Payload
Rocket body
Debris
Shape & HBRUnknown
Radar Cross SectionSmall (<0.1 m²)

Expand to show TLE details & history

TLE from 12 hours ago
0 NOAA 16 DEB
1 41200U 00055DD  24361.36351284  .00088417  00000-0  13813-1 0  9990
2 41200  98.8427 148.0124 0018101 235.0046 124.9460 14.72211380471218
Epoch: 2024-12-26T08:43Z
Definitive object data (Epoch: 2024-12-26T08:43:27.509Z)
Latitude-0.00002°
Longitude-78.1962°
Altitude664.307 km
Speed7.521 km/s
True Right ascension09h 52m 02s
True Declination0° 00' 00"
Sunlit
Object was in full shadow at TLE epoch
Visualization TLE readout
Latitude-31.1021°
Longitude97.00801°
Altitude653.614 km
Speed7.536 km/s
Apparent Right ascension00h 35m 39s
Apparent Declination-76° 13' 01"
Sunlit
Object is in daylight
Visualization observer readout
Local Sidereal Time20:28:55
Azimuth165.609° S
Elevation-32.446°
Doppler factor1
Orbital elements
Apogee altitude663.837 km
Perigee altitude638.389 km
Semi-major axis7,029.25 km
Eccentricity0.0018101
Inclination98.8427°
RAAN148.0124°
Arg. of periapsis235.0046°
True anomaly125.1158°
Mean anomaly124.946°
Eccentric anomaly125.03092°
Mean motion3.68281 °/min
BSTAR0.013813
Orbital period97.75 mins
Loading maneuver chart data...
Loading historical data...
Loading historical data...
Loading historical data...
Loading historical data...
Loading historical data...
Loading historical data...
Loading historical data...

NOAA 16 DEB Visibility forecast

Observer location: undefined°, undefined

Span
Click to sort rows by Start time (UTC) header in descending order
Start Az.
Max El. time (UTC)
Max El. Az.
Max El.
End time (UTC)
End Az.
7 mins2024-12-26 22:20:59.389Z33.913° NE2024-12-26 22:24:59.389Z105.573° ESE29.997°2024-12-26 22:27:59.389Z159.549° S
5 mins2024-12-26 23:58:59.389Z331.351° NNW2024-12-27 00:00:59.389Z298.589° NW19.961°2024-12-27 00:03:59.389Z250.844° W
7 mins2024-12-27 09:19:59.389Z126.923° SE2024-12-27 09:22:59.389Z70.636° E29.7°2024-12-27 09:26:59.389Z5.404° NNE
5 mins2024-12-27 10:57:59.389Z233.603° WSW2024-12-27 10:59:59.389Z269.143° W20.194°2024-12-27 11:02:59.389Z312.864° NW
|